星链-4437 (STARLINK-4437 )

导读

STARLINK-4437是美国SpaceX公司星链(Starlink)互联网星座的第4组16批卫星之一,于2022年8月12日由猎鹰9号火箭发射升空。该卫星质量约297千克,运行在高度约548公里的近地轨道,主要为全球偏远地区提供高速低延迟宽带互联网接入服务。作为目前全球规模最大低轨星座的组成部分,它助力星链实现全球无缝覆盖,同时也引发太空轨道安全和天文观测等领域争议。

基本信息
目录编号:
53506
目录名称:
STARLINK-4437
国际标识:
2022-099AT
轨道中心:
EARTH
卫星名称:
星链-4437
卫星全名:
星链-4437 (STARLINK-4437 )
卫星状态:
已陨落 最后检测时间 2026-08-25
发射日期:
2022-08-12 UTC
国别 :
美国 (US)
星等 :
--
轨道信息
数据来源 国际轨道数据
星历时间: 2026-08-25T15:50:59+0800
1天前
查看轨道信息
半长轴: 6519.582km
偏心率: 0.001252
轨道倾角: 97.579°
近地点辐角 279.082°
升交点赤经 10.256°
平近点角 80.907°
近地点: 133.282km
远地点: 149.608km
周期: 87.315分钟
每日圈数: 16.491993
详细信息
固有亮度:
5
最大亮度:
2.5
卫星平台:
Starlink v1.5
覆盖范围:
全球
运营商:
太空探索技术公司
运营商所在国:
美国
制造商(研发单位):
太空探索技术公司
制造商所在国:
美国
使用方式:
暂无
卫星简介
星链(Starlink)计划是由太空探索技术公司(SpaceX)提出的一个巨型低轨卫星互联网星座项目,计划在2019年至2024年间在太空搭建由约1.2万颗卫星组成的“星链”网络,其中1584颗将部署在地球上空550千米处的近地轨道,并从2020年开始工作。该卫星仍在工作。